STARLINK-34930 (65688 NORAD) Tracking and Keplerian Element Data

This shows tracking and keplerian element data for the satellite.

Feedback or suggestion? Click here.




ElementValue
Catalog65688
NameSTARLINK-34930
Epoch Orbit1492
Epoch Day353.21368701
Epoch Year2025
RAAN359.3826
Inclination53.1607
Eccentricity0.0001498
Argument of Perigee79.7026
Mean Anonmoly280.4144
Mean Motion15.30210452
Decay Rate0.00018536
L11 65688U 25212N 25353.21368701 .00018536 00000+0 63620-3 0 9993
L22 65688 53.1607 359.3826 0001498 79.7026 280.4144 15.30210452 14928



Live tracking and technical data element details for STARLINK-34930 (NORAD 65688). STARLINK-34930 can be tracked NOW for your location showing map with azimuth and elevation plus other details from your city location.







IsCatalogInMostPopularTable: catalog: 65688, numindb: 8
Update: records affected: 1



GetName: 65688 STARLINK-34930

Hit Count: updated at: Mon, 20 Apr 2026 09:03:52 GMT